{"data":{"norad_id":59264,"epoch":"2026-09-21T12:18:50.054112Z","epoch_age_seconds":74668,"freshness":"FRESH","line1":"1 59264U 24050L   26264.51307933  .00013524  00000+0  41072-3 0  9999","line2":"2 59264  53.1606 349.0278 0000941  79.2445 280.8664 15.34395194140561","mean_motion":15.34395194,"eccentricity":9.41e-5,"inclination_deg":53.1606,"raan_deg":349.0278,"arg_perigee_deg":79.2445,"mean_anomaly_deg":280.8664,"bstar":0.00041072,"rev_number":14056,"period_min":93.848052029287,"perigee_km":462.07380027844,"apogee_km":463.36124909998,"semimajor_km":6840.8545246892,"source":"CELESTRAK","updated_at":"2026-09-22T09:00:48.872433Z"}}